CAPE
0 0 0 0 0 0 0 0 0 0 0 0 0 0 0 0 0 0 0 0 0 0 0 0 0 0 0 0 0 0 0 0 0 0 0 0 0 0 0 0 0 0 0 0
0 0 0 0 0 0 0 0 0 0 0 0 0 0 0 0 0 0 0 0 0 0 0 0 0 0 0 0 0 0 0 0 0 0 0 0 0 0 0 0 0 0 0 0
0 0 0 0 0 0 0 0 0 0 0 0 0 0 0 0 0 0 0 0 0 0 0 0 0 0 0 0 0 0 0 0 0 0 0 0 0 0 0 0 0 0 0 0
0 0 0 0 0 0 0 0 0 0 0 0 0 0 0 0 0 0 0 0 0 0 0 0 0 0 0 0 0 0 0 0 0 0 0 0 0 0 0 0 0 0 0 0
0 0 0 0 0 0 0 0 0 0 0 0 0 0 0 0 0 0 0 0 0 0 0 0 0 0 0 0 0 0 0 0 0 0 0 0 0 0 0 0 0 0 0 0
0 0 0 0 0 0 0 0 0 0 0 0 0 0 0 0 0 0 0 0 0 0 0 0 0 0 0 0 0 0 0 0 0 0 0 0 0 0 0 0 0 0 0 0
0 0 0 0 0 0 0 0 0 0 0 0 0 0 0 0 0 0 0 0 0 0 0 0 0 0 0 0 0 0 0 0 0 0 0 0 0 0 0 0 0 0 0 0
0 0 0 0 0 0 0 0 0 0 0 0 0 0 0 0 0 0 0 0 0 0 0 0 0 0 0 0 0 0 0 0 0 0 0 0 0 0 0 0 0 0 0 0
0 0 0 0 0 0 0 0 0 0 0 0 0 0 0 0 0 0 0 0 0 0 0 0 0 0 0 0 0 0 0 0 0 0 0 0 0 0 0 0 0 0 0 0
0 0 0 0 0 0 0 0 0 0 0 0 0 0 0 0 0 0 0 0 0 0 0 0 0 0 0 0 0 0 0 0 0 0 0 0 0 0 0 0 0 0 0 0
0 0 0 0 0 0 0 0 0 0 1 1 0 0 0 0 0 0 0 0 0 0 0 0 0 0 0 0 0 0 0 0 0 0 0 0 0 0 0 0 0 0 0 0
5 16 0 0 0 0 0 0 0 15 0 0 5 0 0 0 0 0 0 0 0 0 0 0 0 0 0 0 0 0 0 0 0 0 0 0 0 0 0 0 0 0 0 0
4 7 0 0 0 0 0 0 0 0 0 0 2 1 0 0 0 0 0 0 0 0 0 0 0 0 0 0 0 0 0 0 0 0 0 0 0 0 0 0 0 0 0 0
0 11 3 0 0 0 0 0 0 1 1 0 0 0 0 0 0 0 0 0 0 0 0 0 0 0 0 0 0 0 0 0 0 0 0 0 0 0 0 0 0 0 0 0
0 0 0 0 0 0 0 0 0 0 0 0 0 0 0 0 0 0 0 0 0 0 0 0 0 0 0 0 0 0 0 0 0 0 0 0 0 0 0 0 0 0 0 0
0 0 0 0 0 0 0 0 0 0 0 0 0 0 0 0 0 0 0 0 0 0 0 0 0 0 0 0 0 0 0 0 0 0 0 0 0 0 0 0 0 0 0 0
0 0 0 0 0 0 0 0 0 0 0 0 0 0 0 0 0 0 0 0 0 0 0 0 0 0 0 0 0 0 0 0 0 0 0 0 0 0 0 0 0 0 0 0
0 0 0 0 0 0 0 0 0 0 0 0 0 0 0 0 0 0 0 0 0 0 0 0 0 0 0 0 0 0 0 0 0 0 0 0 0 0 0 0 0 0 0 0
0 0 0 0 0 0 0 0 0 0 0 0 0 0 0 0 0 0 0 0 0 0 0 0 0 0 0 0 0 0 0 0 0 0 0 0 0 0 0 0 0 0 0 0
0 0 0 0 0 0 0 0 0 0 0 0 0 0 0 0 0 0 0 0 0 0 0 0 0 0 0 0 0 0 0 0 0 0 0 0 0 0 0 0 0 0 0 0
0 0 0 0 0 0 0 0 0 0 0 0 0 0 0 0 0 0 0 0 0 0 0 0 0 0 0 0 0 0 0 0 0 0 0 0 0 0 0 0 0 0 0 0
0 0 0 0 0 0 0 0 0 0 0 0 0 0 0 0 0 0 0 0 0 0 0 0 0 0 0 0 0 0 0 0 0 0 0 0 0 0 0 0 0 0 0 0
0 0 0 0 0 0 0 0 0 0 0 0 0 0 0 0 0 0 0 0 0 0 0 0 0 0 0 0 0 0 0 0 0 0 0 0 0 0 0 0 0 0 0 0
0 0 0 0 0 0 0 0 0 0 0 0 0 0 0 0 0 0 0 0 0 0 0 0 0 0 0 0 0 0 0 0 0 0 0 0 0 0 0 0 0 0 0 0
0 0 0 0 0 0 0 0 0 0 0 0 0 0 0 0 0 0 0 0 0 0 0 0 0 0 0 0 0 0 0 0 0 0 0 0 0 0 0 0 0 0 0 0
0 0 0 0 0 0 0 0 0 0 0 0 0 0 0 0 0 0 0 0 0 0 0 0 0 0 0 0 0 0 0 0 0 0 0 0 0 0 0 0 0 0 0 0
CIN
-0 -0 -0 -0 -0 -0 -0 -0 -0 -0 -0 -0 -0 -0 -0 -0 -0 -0 -0 -0 -0 -0 -0 -0 -0 -0 -0 -0 -0 -0 -0 -0 -0 -0 -0 -0 -0 -0 -0 -0 -0 -0 -0 -0
-0 -0 -0 -0 -0 -0 -0 -0 -0 -0 -0 -0 -0 -0 -0 -0 -0 -0 -0 -0 -0 -0 -0 -0 -0 -0 -0 -0 -0 -0 -0 -0 -0 -0 -0 -0 -0 -0 -0 -0 -0 -0 -0 -0
-0 -0 -0 -0 -0 -0 -0 -0 -0 -0 -0 -0 -0 -0 -0 -0 -0 -0 -0 -0 -0 -0 -0 -0 -0 -0 -0 -0 -0 -0 -0 -0 -0 -0 -0 -0 -0 -0 -0 -0 -0 -0 -0 -0
-0 -0 -0 -0 -0 -0 -0 -0 -0 -0 -0 -0 -0 -0 -0 -0 -0 -0 -0 -0 -0 -0 -0 -0 -0 -0 -0 -0 -0 -0 -0 -0 -0 -0 -0 -0 -0 -0 -0 -0 -0 -0 -0 -0
-0 -0 -0 -0 -0 -0 -0 -0 -0 -0 -0 -0 -0 -0 -0 -0 -0 -0 -0 -0 -0 -0 -0 -0 -0 -0 -0 -0 -0 -0 -0 -0 -0 -0 -0 -0 -0 -0 -0 -0 -0 -0 -0 -0
-0 -0 -0 -0 -0 -0 -0 -0 -0 -0 -0 -0 -0 -0 -0 -0 -0 -0 -0 -0 -0 -0 -0 -0 -0 -0 -0 -0 -0 -0 -0 -0 -0 -0 -0 -0 -0 -0 -0 -0 -0 -0 -0 -0
-0 -0 -0 -0 -0 -0 -0 -0 -0 -0 -0 -0 -0 -0 -0 -0 -0 -0 -0 -0 -0 -0 -0 -0 -0 -0 -0 -0 -0 -0 -0 -0 -0 -0 -0 -0 -0 -0 -0 -0 -0 -0 -0 -0
-0 -0 -0 -0 -0 -0 -0 -0 -0 -0 -0 -0 -0 -0 -0 -0 -0 -0 -0 -0 -0 -0 -0 -0 -0 -0 -0 -0 -0 -0 -0 -0 -0 -0 -0 -0 -0 -0 -0 -0 -0 -0 -0 -0
-0 -0 -0 -0 -0 -0 -0 -0 -0 -0 -0 -0 -0 -0 -0 -0 -0 -0 -0 -0 -0 -0 -0 -0 -0 -0 -0 -0 -0 -0 -0 -0 -0 -0 -0 -0 -0 -0 -0 -0 -0 -0 -0 -0
-0 -0 -0 -0 -0 -0 -0 -0 -0 -0 -0 -0 -0 -0 -0 -0 -0 -0 -0 -0 -0 -0 -0 -0 -0 -0 -0 -0 -0 -0 -0 -0 -0 -0 -0 -0 -0 -0 -0 -0 -0 -0 -0 -0
-0 -0 -0 -0 -0 -0 -0 -0 -0 -0 -3 -1 -0 -0 -0 -0 -0 -0 -0 -0 -0 -0 -0 -0 -0 -0 -0 -0 -0 -0 -0 -0 -0 -0 -0 -0 -0 -0 -0 -0 -0 -0 -0 -0
-13 -5 -0 -0 -0 -0 -0 -0 -0 -2 -0 -0 -2 -1 -0 -0 -0 -0 -0 -0 -0 -0 -0 -0 -0 -0 -0 -0 -0 -0 -0 -0 -0 -0 -0 -0 -0 -0 -0 -0 -0 -0 -0 -0
-16 -1 -0 -0 -0 -0 -0 -0 -0 -0 -0 -14 -11 -4 -0 -0 -0 -0 -0 -0 -0 -0 -0 -0 -0 -0 -0 -0 -0 -0 -0 -0 -0 -0 -0 -0 -0 -0 -0 -0 -0 -0 -0 -0
-6 -9 -3 -0 -0 -0 -0 -0 -0 -0 -1 -0 -0 -0 -0 -0 -0 -0 -0 -0 -0 -0 -0 -0 -0 -0 -0 -0 -0 -0 -0 -0 -0 -0 -0 -0 -0 -0 -0 -0 -0 -0 -0 -0
-0 -2 -1 -1 -0 -0 -0 -0 -0 -0 -0 -0 -0 -0 -0 -0 -0 -0 -0 -0 -0 -0 -0 -0 -0 -0 -0 -0 -0 -0 -0 -0 -0 -0 -0 -0 -0 -0 -0 -0 -0 -0 -0 -0
-0 -0 -0 -0 -0 -0 -0 -0 -0 -0 -0 -0 -0 -0 -0 -0 -0 -0 -0 -0 -0 -0 -0 -0 -0 -0 -0 -0 -0 -0 -0 -0 -0 -0 -0 -0 -0 -0 -0 -0 -0 -0 -0 -0
-0 -0 -0 -0 -0 -0 -0 -0 -0 -0 -0 -0 -0 -0 -0 -0 -0 -0 -0 -0 -0 -0 -0 -0 -0 -0 -0 -0 -0 -0 -0 -0 -0 -0 -0 -0 -0 -0 -0 -0 -0 -0 -0 -0
-0 -0 -0 -0 -0 -0 -0 -0 -0 -0 -0 -0 -0 -0 -0 -0 -0 -0 -0 -0 -0 -0 -0 -0 -0 -0 -0 -0 -0 -0 -0 -0 -0 -0 -0 -0 -0 -0 -0 -0 -0 -0 -0 -0
-0 -0 -0 -0 -0 -0 -0 -0 -0 -0 -0 -0 -0 -0 -0 -0 -0 -0 -0 -0 -0 -0 -0 -0 -0 -0 -0 -0 -0 -0 -0 -0 -0 -0 -0 -0 -0 -0 -0 -0 -0 -0 -0 -0
-0 -0 -0 -0 -0 -0 -0 -0 -0 -0 -0 -0 -0 -0 -0 -0 -0 -0 -0 -0 -0 -0 -0 -0 -0 -0 -0 -0 -0 -0 -0 -0 -0 -0 -0 -0 -0 -0 -0 -0 -0 -0 -0 -0
-0 -0 -0 -0 -0 -0 -0 -0 -0 -0 -0 -0 -0 -0 -0 -0 -0 -0 -0 -0 -0 -0 -0 -0 -0 -0 -0 -0 -0 -0 -0 -0 -0 -0 -0 -0 -0 -0 -0 -0 -0 -0 -0 -0
-0 -0 -0 -0 -0 -0 -0 -0 -0 -0 -0 -0 -0 -0 -0 -0 -0 -0 -0 -0 -0 -0 -0 -0 -0 -0 -0 -0 -0 -0 -0 -0 -0 -0 -0 -0 -0 -0 -0 -0 -0 -0 -0 -0
-0 -0 -0 -0 -0 -0 -0 -0 -0 -0 -0 -0 -0 -0 -0 -0 -0 -0 -0 -0 -0 -0 -0 -0 -0 -0 -0 -0 -0 -0 -0 -0 -0 -0 -0 -0 -0 -0 -0 -0 -0 -0 -0 -0
-0 -0 -0 -0 -0 -0 -0 -0 -0 -0 -0 -0 -0 -0 -0 -0 -0 -0 -0 -0 -0 -0 -0 -0 -0 -0 -0 -0 -0 -0 -0 -0 -0 -0 -0 -0 -0 -0 -0 -0 -0 -0 -0 -0
-0 -0 -0 -0 -0 -0 -0 -0 -0 -0 -0 -0 -0 -0 -0 -0 -0 -0 -0 -0 -0 -0 -0 -0 -0 -0 -0 -0 -0 -0 -0 -0 -0 -0 -0 -0 -0 -0 -0 -0 -0 -0 -0 -0
-0 -0 -0 -0 -0 -0 -0 -0 -0 -0 -3 -0 -0 -0 -0 -0 -0 -0 -0 -0 -0 -0 -0 -0 -0 -0 -0 -0 -0 -0 -0 -0 -0 -0 -0 -0 -0 -0 -0 -0 -0 -0 -0 -0
Wind_Speed
19 23 24 25 23 26 34 37 40 39 38 38 36 42 44 43 36 39 37 28 17 20 23 26 26 26 25 24 23 23 24 22 20 21 21 22 23 24 24 26 26 26 25 24
24 27 25 27 31 33 33 39 40 38 34 40 44 47 43 35 28 28 23 19 18 21 23 23 23 24 24 24 23 21 20 21 20 19 19 20 20 21 21 21 24 26 26 24
28 28 34 34 35 36 35 37 40 41 40 38 39 41 32 28 26 22 21 20 21 22 21 22 23 23 22 23 24 24 22 20 20 21 21 21 21 22 24 25 23 24 24 24
28 23 25 26 28 28 34 30 33 36 38 38 37 45 38 37 25 21 22 21 20 20 19 20 21 22 22 21 22 24 24 23 23 23 21 21 22 24 25 27 25 24 23 25
25 23 25 28 26 25 30 29 32 34 34 38 37 37 33 26 21 22 21 20 19 18 17 17 19 20 21 22 24 24 24 24 25 24 24 24 25 25 27 27 26 26 26 27
27 24 24 25 25 29 32 34 33 32 30 40 33 32 33 27 20 20 18 18 17 17 16 17 18 20 22 24 24 25 25 26 25 25 25 27 27 29 28 29 29 30 29 29
28 25 26 23 29 25 25 32 41 40 37 40 30 36 31 25 22 20 18 15 16 17 18 20 22 23 25 26 27 26 27 28 28 28 29 29 28 28 29 30 31 33 33 32
35 37 25 23 26 29 28 29 36 45 44 41 38 43 38 26 21 17 17 18 18 19 21 22 24 25 25 26 26 28 30 31 31 31 30 29 30 30 30 30 30 32 34 36
33 34 23 23 23 24 28 32 28 36 38 45 41 39 35 25 24 22 21 21 23 22 23 24 26 26 27 27 28 29 30 32 33 32 33 32 33 32 32 32 33 33 34 36
28 37 29 26 26 24 26 25 35 32 44 51 46 46 45 35 30 24 25 26 23 23 24 24 25 26 27 28 29 29 28 30 31 32 32 33 34 34 34 35 36 36 37 38
23 30 34 31 28 29 29 31 30 32 37 50 55 49 33 33 23 24 25 25 24 24 25 26 26 26 27 28 30 31 31 32 31 33 33 34 35 36 36 38 39 39 39 41
24 29 39 37 31 32 32 35 35 42 45 40 45 51 28 27 25 25 28 29 28 28 28 30 31 32 33 34 34 35 34 34 34 36 35 36 37 38 38 39 41 41 43 43
23 31 42 42 34 26 28 28 30 34 36 44 50 45 25 24 28 31 34 31 32 33 32 33 34 34 34 34 35 36 36 36 37 38 39 40 42 43 44 44 44 45 47 48
23 31 36 45 42 41 42 42 39 38 46 49 51 51 49 47 45 44 39 37 34 34 35 35 36 36 37 39 39 39 40 41 41 42 46 48 49 49 49 49 50 50 50 51
27 39 38 40 41 43 46 48 49 48 46 51 56 55 51 50 51 42 37 34 36 38 37 36 37 38 38 39 40 42 43 44 45 47 50 52 52 53 53 54 53 53 53 53
26 39 40 48 41 44 50 51 48 49 49 50 49 53 46 41 37 37 36 35 37 38 37 36 36 37 39 40 42 44 46 47 47 50 52 53 53 54 55 56 56 56 56 56
32 37 40 52 42 43 52 48 46 46 44 48 53 49 42 44 40 36 35 36 38 38 36 37 39 38 38 39 41 45 46 46 48 51 53 55 55 56 56 56 57 58 60 61
35 36 38 50 45 59 48 35 36 42 44 45 47 44 40 37 34 33 31 34 33 32 35 36 38 38 35 37 41 42 44 46 51 53 54 54 55 57 58 59 61 62 62 64
30 34 42 46 50 50 52 46 45 45 49 40 41 38 33 33 36 35 27 30 34 36 37 36 36 34 35 37 39 41 45 46 49 52 53 54 55 58 60 62 63 64 64 66
27 28 34 39 50 58 45 35 32 35 56 40 38 34 31 34 43 40 33 35 35 34 33 34 34 34 36 38 40 43 47 48 51 51 53 55 57 59 62 62 64 64 64 67
34 34 40 44 49 48 39 35 32 49 53 33 31 28 30 35 36 37 37 34 33 31 31 32 34 37 38 38 41 45 47 50 51 54 57 58 58 60 61 62 62 63 65 65
36 39 42 42 48 55 31 31 40 36 30 30 28 27 31 37 40 38 37 36 30 31 33 35 38 38 37 39 42 47 50 51 54 56 58 59 60 59 59 60 61 61 62 63
40 36 41 36 39 32 31 33 29 31 36 35 32 33 38 39 38 37 33 29 30 33 35 35 37 40 39 39 43 51 53 55 57 58 58 57 56 56 56 57 57 56 53 53
35 34 40 43 40 41 40 36 35 37 37 34 32 32 34 36 35 33 30 31 33 34 36 35 37 40 41 42 46 49 53 54 56 57 56 54 55 55 51 46 44 44 43 43
37 33 40 43 38 39 39 37 35 35 32 32 32 32 33 33 33 30 31 31 32 34 33 34 37 39 42 45 48 50 51 51 52 51 52 53 52 50 46 41 39 38 37 39
35 38 40 45 38 38 39 36 33 30 32 32 34 36 34 32 31 30 30 30 31 31 32 33 35 39 43 47 50 50 48 47 47 50 51 49 47 42 40 40 38 33 34 35
Wind_Direction
312 310 308 310 306 308 310 311 310 312 315 313 313 311 311 315 315 313 315 319 338 342 345 342 340 340 337 337 331 324 317 312 306 301 298 294 292 292 289 289 288 286 284 279
309 303 307 309 309 309 309 308 309 313 317 315 312 309 314 319 322 324 338 347 347 342 345 347 349 349 350 351 352 348 340 331 323 314 312 310 308 304 301 297 293 291 289 285
295 303 308 307 306 305 305 305 308 310 315 315 315 313 319 325 335 337 344 343 343 343 345 344 341 347 352 349 351 353 353 350 340 330 323 320 315 313 309 307 304 300 297 294
304 313 313 313 312 312 311 315 314 313 314 314 321 310 310 315 320 331 339 343 344 344 349 349 347 343 345 349 351 353 353 350 344 340 334 331 322 317 316 312 310 308 305 300
312 311 313 311 312 317 312 316 313 313 313 313 315 309 320 319 314 324 335 341 347 351 352 355 1 353 342 344 346 348 349 351 345 342 337 330 326 322 316 312 317 316 313 308
308 317 314 312 311 313 313 313 311 310 312 307 317 312 318 324 317 325 335 339 345 352 355 0 355 344 335 341 343 340 344 345 344 341 337 334 327 319 318 317 313 313 313 312
312 305 311 311 313 316 318 315 310 306 303 303 316 310 307 323 317 312 318 330 337 340 341 339 336 330 333 337 332 328 333 334 334 332 330 327 326 324 325 323 319 315 314 313
305 305 316 321 314 314 313 314 306 303 303 303 310 303 308 314 321 324 323 322 324 325 328 330 330 332 332 332 330 324 328 322 324 325 324 322 321 327 329 330 326 322 316 311
306 303 320 320 321 321 316 308 315 304 305 300 302 306 311 314 314 315 315 317 318 320 323 324 326 328 329 328 324 326 324 322 322 321 320 319 320 325 326 327 325 324 320 317
310 302 311 317 319 316 311 317 308 308 301 297 300 303 303 310 306 311 312 313 318 321 323 325 325 324 325 323 323 326 326 324 324 323 323 319 321 324 325 324 322 320 318 316
316 305 304 311 311 311 312 307 307 306 301 298 299 299 317 320 319 316 317 316 316 317 317 320 322 323 323 320 320 322 321 321 321 322 321 320 321 322 322 317 316 317 315 315
308 309 300 302 310 310 306 304 303 299 302 299 297 294 311 316 317 317 313 310 310 312 313 316 317 315 313 314 313 314 316 313 314 317 319 317 316 316 315 312 312 312 310 311
311 305 302 306 310 319 311 312 310 307 304 298 298 301 315 316 315 311 309 307 305 303 309 312 314 314 313 313 313 313 315 315 316 317 317 316 313 312 312 312 310 308 307 309
311 299 298 296 300 308 304 304 303 303 299 300 295 300 301 302 307 308 305 302 302 303 307 309 311 311 310 311 311 312 312 312 314 315 312 310 310 311 311 310 308 307 307 305
303 295 298 297 299 301 300 299 298 297 296 295 297 297 299 302 303 304 305 304 304 305 305 304 305 308 308 310 311 311 310 312 313 312 310 310 310 309 310 308 309 307 305 304
304 298 302 297 301 299 297 296 297 297 297 296 298 296 303 307 309 307 306 305 306 307 307 306 305 304 304 304 306 307 309 311 313 312 312 312 311 309 308 307 306 304 303 302
298 300 301 297 304 304 297 298 297 297 298 299 298 302 306 305 305 307 307 308 307 308 309 311 312 309 307 307 308 308 308 310 311 311 311 311 311 309 308 307 305 303 302 301
296 296 298 298 302 294 302 309 309 305 304 304 304 305 307 307 309 311 312 310 310 312 312 312 314 314 313 314 313 314 314 314 313 311 311 311 310 309 308 307 305 303 302 300
285 292 296 296 294 299 301 304 305 305 303 309 307 306 305 310 311 309 317 318 316 314 314 314 317 318 318 318 318 317 316 317 316 315 314 314 312 310 308 306 305 303 302 300
297 288 289 296 297 297 306 311 316 314 301 310 308 305 306 311 305 306 315 315 315 315 315 317 319 320 321 320 321 319 318 319 317 318 317 316 314 312 309 308 306 305 303 300
298 297 288 291 294 299 306 310 315 302 306 314 312 308 307 308 310 312 311 312 313 316 318 320 320 320 321 323 322 320 320 320 320 319 317 316 315 313 311 309 308 306 303 301
294 297 297 298 295 297 312 314 304 310 317 315 313 308 307 311 311 312 310 310 313 315 317 319 319 321 325 326 325 322 322 323 322 321 319 318 317 316 314 312 310 308 306 303
292 292 300 297 301 310 312 308 310 310 308 309 306 305 307 309 310 311 311 312 314 316 318 320 320 321 325 327 327 323 323 324 323 322 321 320 320 319 317 315 313 312 311 309
296 296 295 299 298 300 302 302 302 304 305 307 307 308 310 310 310 310 310 311 313 316 318 320 321 322 324 327 327 326 326 326 325 324 324 325 324 322 322 322 322 321 320 318
293 301 299 298 301 302 303 304 304 304 304 306 306 307 308 309 308 307 308 309 312 316 318 321 322 324 325 327 328 328 329 329 328 329 329 328 329 328 327 328 327 327 325 322
288 289 293 296 302 301 304 308 308 305 306 308 309 309 310 309 308 309 309 312 314 316 319 321 324 325 327 328 329 330 332 333 333 332 333 334 334 333 332 331 331 332 329 329